This demonstration page uses our WeatherBlox Daily Observations layout. Learn more.

Left ArrowRight Arrow

Hourly Observations for April 30, 2015

Temp ( °F °C ) Dew Point ( °F °C ) Humidity (%) Winds ( mph kmh ) Pressure ( in mb ) Visibility ( mi km ) Precip ( " mm )
12:53 am 00:53 Clear 53 11.7 36 2.2 52 52 WNW 10 17 29.90 1013 10 16 N/A
1:53 am 01:53 Clear 46 7.8 34 1.1 63 63 WNW 6 9 29.94 1014 10 16 N/A
2:53 am 02:53 Clear 42 5.6 32 undefined 68 68 W 5 7 29.96 1015 10 16 N/A
3:53 am 03:53 Clear 36 2.2 31 -0.6 82 82 SW 12 19 29.99 1016 10 16 N/A
4:53 am 04:53 Clear 35 1.7 31 -0.6 85 85 WSW 8 13 30.01 1016 10 16 N/A
5:53 am 05:53 Clear 35 1.7 32 undefined 89 89 SW 9 15 30.02 1017 10 16 N/A
6:53 am 06:53 Sunny 39 3.9 34 1.1 82 82 SSW 10 17 30.03 1017 10 16 N/A
7:53 am 07:53 Sunny 45 7.2 36 2.2 71 71 SW 16 26 30.03 1017 10 16 N/A
8:53 am 08:53 Sunny 51 10.6 35 1.7 54 54 SW 20 31 30.03 1017 10 16 N/A
9:53 am 09:53 Sunny 56 13.3 30 -1.1 37 37 WSW 22 35 30.02 1017 10 16 N/A
10:53 am 10:53 Sunny 62 16.7 22 -5.6 21 21 W 18 30 30.01 1016 10 16 N/A
11:53 am 11:53 Sunny 63 17.2 19 -7.2 18 18 W 22 35 30.01 1016 10 16 N/A
12:53 pm 12:53 Sunny 64 17.8 20 -6.7 18 18 W 22 35 29.99 1016 10 16 N/A
1:53 pm 13:53 Sunny 66 18.9 22 -5.6 19 19 WSW 20 31 29.98 1015 10 16 N/A
2:53 pm 14:53 Sunny 66 18.9 21 -6.1 18 18 WSW 21 33 29.96 1015 10 16 N/A
3:53 pm 15:53 Sunny 67 19.4 20 -6.7 17 17 W 18 30 29.95 1014 10 16 N/A
4:53 pm 16:53 Sunny 68 20 20 -6.7 16 16 WSW 18 30 29.93 1013 10 16 N/A
5:53 pm 17:53 Sunny 68 20 19 -7.2 15 15 WSW 22 35 29.91 1013 10 16 N/A
6:53 pm 18:53 Sunny 67 19.4 18 -7.8 15 15 WSW 16 26 29.90 1013 10 16 N/A
7:53 pm 19:53 Sunny 62 16.7 18 -7.8 18 18 W 12 19 29.89 1012 10 16 N/A
8:53 pm 20:53 Clear 57 13.9 23 -5 27 27 W 14 22 29.91 1013 10 16 N/A
9:53 pm 21:53 Clear 55 12.8 23 -5 29 29 W 12 19 29.93 1013 10 16 N/A
10:53 pm 22:53 Clear 53 11.7 24 -4.4 32 32 W 10 17 29.93 1014 10 16 N/A
11:53 pm 23:53 Clear 51 10.6 26 -3.3 38 38 WNW 6 9 29.93 1014 10 16 N/A

Powered by AerisWeather